| time (UTC) | temp C | wind direction | speed KPH | gust KPH | rain 1hr cm | rain 24hr cm | rain mn cm | humidity % | barometer mb |
| 20260505094505 | 18 | 128 | 4.8 | 11.3 | 0.00 | 0.00 | 0.00 | 50 | 1018.1 |
| 20260505093504 | 18 | 122 | 11.3 | 16.1 | 0.00 | 0.00 | 0.00 | 50 | 1018.1 |
| 20260505093005 | 18 | 116 | 9.7 | 9.7 | 0.00 | 0.00 | 0.00 | 50 | 1018.1 |
| 20260505092503 | 18 | 119 | 4.8 | 11.3 | 0.00 | 0.00 | 0.00 | 50 | 1018.1 |
| 20260505092004 | 18 | 123 | 6.4 | 14.5 | 0.00 | 0.00 | 0.00 | 50 | 1018.1 |
| 20260505091504 | 18 | 132 | 9.7 | 16.1 | 0.00 | 0.00 | 0.00 | 50 | 1018.1 |
| 20260505091004 | 19 | 132 | 9.7 | 16.1 | 0.00 | 0.00 | 0.00 | 50 | 1018.1 |
| 20260505090005 | 19 | 133 | 8.0 | 20.9 | 0.00 | 0.00 | 0.00 | 50 | 1018.1 |
| 20260505085504 | 19 | 130 | 17.7 | 20.9 | 0.00 | 0.00 | 0.00 | 50 | 1018.1 |
| 20260505085004 | 19 | 131 | 16.1 | 20.9 | 0.00 | 0.00 | 0.00 | 50 | 1018.1 |
| 20260505084503 | 19 | 126 | 11.3 | 17.7 | 0.00 | 0.00 | 0.00 | 50 | 1017.1 |
| 20260505084004 | 19 | 134 | 11.3 | 20.9 | 0.00 | 0.00 | 0.00 | 50 | 1017.1 |
| 20260505083504 | 19 | 149 | 12.9 | 27.4 | 0.00 | 0.00 | 0.00 | 50 | 1017.1 |
| 20260505082503 | 20 | 142 | 17.7 | 30.6 | 0.00 | 0.00 | 0.00 | 50 | 1018.1 |
| 20260505081504 | 20 | 132 | 19.3 | 22.5 | 0.00 | 0.00 | 0.00 | 50 | 1018.1 |
| 20260505081004 | 20 | 141 | 12.9 | 27.4 | 0.00 | 0.00 | 0.00 | 50 | 1018.1 |
| 20260505080506 | 20 | 145 | 9.7 | 32.2 | 0.00 | 0.00 | 0.00 | 50 | 1018.1 |
| 20260505080004 | 20 | 143 | 22.5 | 32.2 | 0.00 | 0.00 | 0.00 | 50 | 1017.1 |
| 20260505075004 | 20 | 155 | 12.9 | 24.1 | 0.00 | 0.00 | 0.00 | 50 | 1017.1 |
| 20260505074003 | 20 | 145 | 17.7 | 25.7 | 0.00 | 0.00 | 0.00 | 50 | 1018.1 |
| 20260505073003 | 20 | 140 | 19.3 | 25.7 | 0.00 | 0.00 | 0.00 | 50 | 1017.1 |
| 20260505072504 | 20 | 132 | 14.5 | 25.7 | 0.00 | 0.00 | 0.00 | 50 | 1017.1 |
| 20260505072004 | 20 | 147 | 14.5 | 27.4 | 0.00 | 0.00 | 0.00 | 50 | 1017.1 |
| 20260505071504 | 20 | 155 | 17.7 | 30.6 | 0.00 | 0.00 | 0.00 | 50 | 1018.1 |
| 20260505071004 | 20 | 150 | 24.1 | 37.0 | 0.00 | 0.00 | 0.00 | 50 | 1018.1 |
| 20260505070503 | 20 | 157 | 17.7 | 37.0 | 0.00 | 0.00 | 0.00 | 50 | 1018.1 |
| 20260505070004 | 20 | 161 | 19.3 | 29.0 | 0.00 | 0.00 | 0.00 | 50 | 1018.1 |
| 20260505065504 | 20 | 152 | 20.9 | 29.0 | 0.00 | 0.00 | 0.00 | 50 | 1018.1 |
| 20260505065005 | 20 | 140 | 17.7 | 24.1 | 0.00 | 0.00 | 0.00 | 50 | 1018.1 |
| 20260505064504 | 20 | 137 | 16.1 | 25.7 | 0.00 | 0.00 | 0.00 | 50 | 1018.1 |
| 20260505064003 | 20 | 141 | 16.1 | 27.4 | 0.00 | 0.00 | 0.00 | 50 | 1018.1 |
| 20260505063504 | 20 | 144 | 14.5 | 27.4 | 0.00 | 0.00 | 0.00 | 50 | 1018.1 |
| 20260505063004 | 20 | 142 | 16.1 | 27.4 | 0.00 | 0.00 | 0.00 | 50 | 1018.1 |
| 20260505062504 | 20 | 147 | 20.9 | 29.0 | 0.00 | 0.00 | 0.00 | 50 | 1018.1 |
| 20260505062004 | 20 | 153 | 12.9 | 29.0 | 0.00 | 0.00 | 0.00 | 50 | 1018.1 |
| 20260505061004 | 20 | 144 | 17.7 | 30.6 | 0.00 | 0.00 | 0.00 | 50 | 1018.1 |
| 20260505060503 | 21 | 161 | 22.5 | 30.6 | 0.00 | 0.00 | 0.00 | 50 | 1018.1 |
| 20260505060004 | 21 | 159 | 17.7 | 30.6 | 0.00 | 0.00 | 0.00 | 50 | 1018.1 |
| 20260505054504 | 21 | 148 | 11.3 | 30.6 | 0.00 | 0.00 | 0.00 | 50 | 1018.1 |
| 20260505054006 | 21 | 143 | 22.5 | 30.6 | 0.00 | 0.00 | 0.00 | 50 | 1018.1 |
| 20260505053504 | 21 | 153 | 20.9 | 30.6 | 0.00 | 0.00 | 0.00 | 50 | 1018.1 |
| 20260505053004 | 21 | 161 | 9.7 | 27.4 | 0.00 | 0.00 | 0.00 | 50 | 1018.1 |
| 20260505052004 | 21 | 154 | 25.7 | 33.8 | 0.00 | 0.00 | 0.00 | 50 | 1018.1 |
| 20260505051504 | 21 | 154 | 17.7 | 27.4 | 0.00 | 0.00 | 0.00 | 50 | 1018.1 |
| 20260505051003 | 21 | 157 | 20.9 | 27.4 | 0.00 | 0.00 | 0.00 | 50 | 1018.1 |
| 20260505050504 | 21 | 151 | 24.1 | 27.4 | 0.00 | 0.00 | 0.00 | 50 | 1018.1 |
| 20260505041504 | 21 | 158 | 16.1 | 30.6 | 0.00 | 0.00 | 0.00 | 50 | 1017.1 |
| 20260505041004 | 21 | 150 | 14.5 | 30.6 | 0.00 | 0.00 | 0.00 | 50 | 1017.1 |
| 20260505040504 | 21 | 154 | 16.1 | 20.9 | 0.00 | 0.00 | 0.00 | 50 | 1017.1 |
| 20260505035504 | 21 | 158 | 20.9 | 20.9 | 0.00 | 0.00 | 0.00 | 50 | 1018.1 |
| 20260505035004 | 21 | 152 | 12.9 | 20.9 | 0.00 | 0.00 | 0.00 | 50 | 1018.1 |
| 20260505034505 | 21 | 167 | 12.9 | 17.7 | 0.00 | 0.00 | 0.00 | 50 | 1018.1 |
| 20260505034005 | 21 | 188 | 6.4 | 20.9 | 0.00 | 0.00 | 0.00 | 50 | 1018.1 |
| 20260505033505 | 21 | 192 | 16.1 | 20.9 | 0.00 | 0.00 | 0.00 | 50 | 1018.1 |
| 20260505033004 | 21 | 191 | 6.4 | 17.7 | 0.00 | 0.00 | 0.00 | 50 | 1018.1 |
| 20260505032504 | 21 | 187 | 9.7 | 17.7 | 0.00 | 0.00 | 0.00 | 50 | 1018.1 |
| 20260505032003 | 21 | 188 | 6.4 | 14.5 | 0.00 | 0.00 | 0.00 | 50 | 1018.1 |
| 20260505031504 | 21 | 190 | 8.0 | 20.9 | 0.00 | 0.00 | 0.00 | 50 | 1018.1 |
| 20260505031005 | 21 | 191 | 8.0 | 20.9 | 0.00 | 0.00 | 0.00 | 50 | 1018.1 |
| 20260505030503 | 21 | 183 | 6.4 | 14.5 | 0.00 | 0.00 | 0.00 | 50 | 1018.1 |
| 20260505030004 | 21 | 166 | 14.5 | 12.9 | 0.00 | 0.00 | 0.00 | 50 | 1018.1 |
| 20260505025504 | 21 | 175 | 9.7 | 12.9 | 0.00 | 0.00 | 0.00 | 50 | 1018.1 |
| 20260505025004 | 21 | 194 | 9.7 | 16.1 | 0.00 | 0.00 | 0.00 | 50 | 1018.1 |
| 20260505023504 | 20 | 197 | 8.0 | 12.9 | 0.00 | 0.00 | 0.00 | 50 | 1018.1 |
| 20260505023003 | 20 | 184 | 11.3 | 16.1 | 0.00 | 0.00 | 0.00 | 50 | 1019.1 |
| 20260505022504 | 20 | 188 | 9.7 | 16.1 | 0.00 | 0.00 | 0.00 | 50 | 1019.1 |
| 20260505022003 | 20 | 190 | 9.7 | 20.9 | 0.00 | 0.00 | 0.00 | 50 | 1019.1 |
| 20260505021504 | 19 | 198 | 16.1 | 20.9 | 0.00 | 0.00 | 0.00 | 50 | 1019.1 |
| 20260505021004 | 20 | 198 | 16.1 | 24.1 | 0.00 | 0.00 | 0.00 | 50 | 1019.1 |
| 20260505015504 | 20 | 201 | 16.1 | 19.3 | 0.00 | 0.00 | 0.00 | 50 | 1019.1 |
| 20260505015004 | 20 | 197 | 16.1 | 20.9 | 0.00 | 0.00 | 0.00 | 50 | 1019.1 |
| 20260505014503 | 20 | 194 | 9.7 | 20.9 | 0.00 | 0.00 | 0.00 | 50 | 1019.1 |
| 20260505014004 | 20 | 191 | 14.5 | 17.7 | 0.00 | 0.00 | 0.00 | 50 | 1019.1 |
| 20260505013504 | 20 | 189 | 12.9 | 20.9 | 0.00 | 0.00 | 0.00 | 50 | 1019.1 |
| 20260505013004 | 21 | 191 | 16.1 | 20.9 | 0.00 | 0.00 | 0.00 | 50 | 1019.1 |
| 20260505012503 | 21 | 202 | 14.5 | 17.7 | 0.00 | 0.00 | 0.00 | 50 | 1019.1 |
| 20260505012004 | 22 | 195 | 4.8 | 14.5 | 0.00 | 0.00 | 0.00 | 50 | 1019.1 |
| 20260505011504 | 21 | 185 | 11.3 | 14.5 | 0.00 | 0.00 | 0.00 | 50 | 1019.1 |
| 20260505011003 | 22 | 185 | 4.8 | 9.7 | 0.00 | 0.00 | 0.00 | 50 | 1019.1 |
| 20260505010504 | 22 | 174 | 4.8 | 9.7 | 0.00 | 0.00 | 0.00 | 50 | 1019.1 |
| 20260505010004 | 22 | 150 | 9.7 | 9.7 | 0.00 | 0.00 | 0.00 | 50 | 1019.1 |
| 20260505005503 | 23 | 128 | 4.8 | 11.3 | 0.00 | 0.00 | 0.00 | 50 | 1019.1 |
| 20260505005005 | 23 | 91 | 8.0 | 11.3 | 0.00 | 0.00 | 0.00 | 50 | 1019.1 |
| 20260505004003 | 25 | 14 | 6.4 | 8.0 | 0.00 | 0.00 | 0.00 | 50 | 1018.1 |
| 20260505003504 | 25 | 341 | 0.0 | 6.4 | 0.00 | 0.00 | 0.00 | 50 | 1018.1 |
| 20260505003004 | 25 | 342 | 3.2 | 6.4 | 0.00 | 0.00 | 0.00 | 50 | 1018.1 |
| 20260505002505 | 24 | 349 | 1.6 | 6.4 | 0.00 | 0.00 | 0.00 | 50 | 1018.1 |
| 20260505002004 | 24 | 348 | 4.8 | 6.4 | 0.00 | 0.00 | 0.00 | 50 | 1018.1 |
| 20260505001504 | 24 | 310 | 4.8 | 8.0 | 0.00 | 0.00 | 0.00 | 50 | 1019.1 |
| 20260505001004 | 23 | 329 | 4.8 | 8.0 | 0.00 | 0.00 | 0.00 | 50 | 1019.1 |
| 20260505000504 | 23 | 337 | 9.7 | 9.7 | 0.00 | 0.00 | 0.00 | 50 | 1019.1 |
| 20260505000003 | 23 | 326 | 9.7 | 9.7 | 0.00 | 0.00 | 0.00 | 50 | 1019.1 |
| 20260504235504 | 23 | 312 | 6.4 | 9.7 | 0.00 | 0.00 | 0.00 | 50 | 1019.1 |
| 20260504235004 | 23 | 307 | 4.8 | 9.7 | 0.00 | 0.00 | 0.00 | 50 | 1019.1 |
| 20260504234003 | 23 | 340 | 9.7 | 6.4 | 0.00 | 0.00 | 0.00 | 50 | 1019.1 |
| 20260504233504 | 22 | 348 | 6.4 | 12.9 | 0.00 | 0.00 | 0.00 | 50 | 1019.1 |
| 20260504232504 | 22 | 345 | 4.8 | 12.9 | 0.00 | 0.00 | 0.00 | 50 | 1019.1 |
| 20260504232004 | 21 | 323 | 3.2 | 12.9 | 0.00 | 0.00 | 0.00 | 50 | 1019.1 |
| 20260504231504 | 21 | 334 | 6.4 | 12.9 | 0.00 | 0.00 | 0.00 | 50 | 1019.1 |
| 20260504231003 | 21 | 353 | 8.0 | 12.9 | 0.00 | 0.00 | 0.00 | 50 | 1019.1 |
| 20260504230504 | 20 | 0 | 0.0 | 0.0 | 0.00 | 0.00 | 0.00 | 50 | 1019.1 |
| 20260504225504 | 20 | 292 | 0.0 | 9.7 | 0.00 | 0.00 | 0.00 | 50 | 1018.1 |
| 20260504225003 | 19 | 292 | 8.0 | 16.1 | 0.00 | 0.00 | 0.00 | 50 | 1018.1 |
| 20260504224505 | 19 | 298 | 8.0 | 16.1 | 0.00 | 0.00 | 0.00 | 50 | 1018.1 |
| 20260504224004 | 18 | 302 | 14.5 | 16.1 | 0.00 | 0.00 | 0.00 | 50 | 1018.1 |
| 20260504223504 | 18 | 135 | 1.6 | 1.6 | 0.00 | 0.00 | 0.00 | 50 | 1018.1 |
| 20260504223005 | 17 | 173 | 1.6 | 6.4 | 0.00 | 0.00 | 0.00 | 50 | 1018.1 |
| 20260504222504 | 17 | 286 | 1.6 | 16.1 | 0.00 | 0.00 | 0.00 | 50 | 1018.1 |
| 20260504222003 | 17 | 318 | 8.0 | 20.9 | 0.00 | 0.00 | 0.00 | 50 | 1018.1 |
| 20260504221504 | 16 | 328 | 8.0 | 20.9 | 0.00 | 0.00 | 0.00 | 50 | 1018.1 |
| 20260504221003 | 16 | 337 | 0.0 | 20.9 | 0.00 | 0.00 | 0.00 | 50 | 1018.1 |
| 20260504220504 | 16 | 338 | 14.5 | 20.9 | 0.00 | 0.00 | 0.00 | 50 | 1018.1 |
| 20260504220004 | 15 | 352 | 14.5 | 29.0 | 0.00 | 0.00 | 0.00 | 50 | 1018.1 |
| 20260504215503 | 15 | 359 | 20.9 | 32.2 | 0.00 | 0.00 | 0.00 | 50 | 1018.1 |
| 20260504215004 | 15 | 358 | 16.1 | 32.2 | 0.00 | 0.00 | 0.00 | 50 | 1018.1 |
| 20260504214505 | 15 | 357 | 16.1 | 33.8 | 0.00 | 0.00 | 0.00 | 50 | 1018.1 |
| 20260504214004 | 15 | 359 | 19.3 | 33.8 | 0.00 | 0.00 | 0.00 | 50 | 1018.1 |
| 20260504213004 | 14 | 11 | 12.9 | 22.5 | 0.00 | 0.00 | 0.00 | 50 | 1017.1 |
| 20260504212004 | 13 | 347 | 14.5 | 35.4 | 0.00 | 0.10 | 0.00 | 50 | 1017.1 |
| 20260504211504 | 13 | 333 | 14.5 | 35.4 | 0.00 | 0.10 | 0.00 | 50 | 1018.1 |
| 20260504211004 | 13 | 329 | 24.1 | 33.8 | 0.00 | 0.10 | 0.00 | 50 | 1018.1 |
| 20260504210504 | 13 | 325 | 20.9 | 35.4 | 0.00 | 0.10 | 0.00 | 50 | 1018.1 |
| 20260504210004 | 12 | 325 | 25.7 | 35.4 | 0.00 | 0.10 | 0.00 | 50 | 1018.1 |
| 20260504205503 | 12 | 329 | 22.5 | 35.4 | 0.00 | 0.10 | 0.00 | 50 | 1018.1 |
| 20260504205003 | 12 | 328 | 16.1 | 35.4 | 0.00 | 0.10 | 0.00 | 50 | 1018.1 |
| 20260504204503 | 12 | 327 | 20.9 | 29.0 | 0.00 | 0.20 | 0.00 | 50 | 1018.1 |
| 20260504204004 | 12 | 332 | 16.1 | 30.6 | 0.00 | 0.20 | 0.00 | 50 | 1018.1 |
| 20260504203003 | 12 | 332 | 20.9 | 37.0 | 0.00 | 0.20 | 0.00 | 50 | 1018.1 |
| 20260504202004 | 11 | 327 | 24.1 | 37.0 | 0.00 | 0.20 | 0.00 | 50 | 1018.1 |
| 20260504201504 | 11 | 322 | 24.1 | 40.2 | 0.00 | 0.20 | 0.00 | 50 | 1018.1 |
| 20260504200503 | 11 | 313 | 19.3 | 40.2 | 0.00 | 0.20 | 0.00 | 50 | 1018.1 |
| 20260504200004 | 11 | 313 | 14.5 | 20.9 | 0.00 | 0.20 | 0.00 | 50 | 1017.1 |
| 20260504195504 | 11 | 314 | 16.1 | 20.9 | 0.00 | 0.20 | 0.00 | 50 | 1017.1 |
| 20260504195004 | 11 | 329 | 6.4 | 9.7 | 0.00 | 0.20 | 0.00 | 50 | 1017.1 |
| 20260504194003 | 11 | 329 | 8.0 | 9.7 | 0.00 | 0.20 | 0.00 | 50 | 1018.1 |
| 20260504193504 | 11 | 330 | 3.2 | 6.4 | 0.00 | 0.20 | 0.00 | 50 | 1018.1 |
| 20260504193004 | 11 | 337 | 4.8 | 11.3 | 0.00 | 0.20 | 0.00 | 50 | 1018.1 |
| 20260504192504 | 11 | 331 | 4.8 | 12.9 | 0.00 | 0.20 | 0.00 | 50 | 1018.1 |
| 20260504192005 | 11 | 327 | 8.0 | 16.1 | 0.00 | 0.20 | 0.00 | 50 | 1018.1 |
| 20260504191503 | 11 | 326 | 8.0 | 16.1 | 0.00 | 0.20 | 0.00 | 50 | 1018.1 |
| 20260504191003 | 11 | 323 | 9.7 | 17.7 | 0.00 | 0.20 | 0.00 | 50 | 1018.1 |
| 20260504185504 | 12 | 329 | 20.9 | 25.7 | 0.00 | 0.20 | 0.00 | 50 | 1017.1 |
| 20260504185004 | 12 | 340 | 14.5 | 24.1 | 0.00 | 0.20 | 0.00 | 50 | 1017.1 |
| 20260504184504 | 12 | 336 | 17.7 | 24.1 | 0.00 | 0.20 | 0.00 | 50 | 1016.1 |
| 20260504184004 | 12 | 332 | 9.7 | 17.7 | 0.00 | 0.20 | 0.00 | 50 | 1016.1 |
| 20260504183504 | 12 | 324 | 14.5 | 24.1 | 0.00 | 0.20 | 0.00 | 50 | 1016.1 |
| 20260504182504 | 12 | 337 | 14.5 | 20.9 | 0.00 | 0.20 | 0.00 | 50 | 1016.1 |
| 20260504182003 | 12 | 337 | 14.5 | 20.9 | 0.00 | 0.20 | 0.00 | 50 | 1016.1 |
| 20260504181004 | 12 | 319 | 11.3 | 20.9 | 0.00 | 0.20 | 0.00 | 50 | 1016.1 |
| 20260504180505 | 12 | 321 | 11.3 | 24.1 | 0.00 | 0.20 | 0.00 | 50 | 1016.1 |
| 20260504180003 | 12 | 322 | 14.5 | 24.1 | 0.00 | 0.20 | 0.00 | 50 | 1015.1 |
| 20260504175503 | 12 | 319 | 9.7 | 24.1 | 0.00 | 0.20 | 0.00 | 50 | 1015.1 |
| 20260504175004 | 12 | 321 | 14.5 | 24.1 | 0.00 | 0.20 | 0.00 | 50 | 1015.1 |
| 20260504174504 | 12 | 319 | 9.7 | 29.0 | 0.00 | 0.20 | 0.00 | 50 | 1015.1 |
| 20260504174004 | 12 | 310 | 14.5 | 43.5 | 0.00 | 0.20 | 0.00 | 50 | 1015.1 |
| 20260504173504 | 12 | 319 | 14.5 | 43.5 | 0.00 | 0.20 | 0.00 | 50 | 1015.1 |
| 20260504173004 | 13 | 320 | 14.5 | 33.8 | 0.00 | 0.20 | 0.00 | 50 | 1015.1 |
| 20260504172505 | 13 | 313 | 14.5 | 33.8 | 0.00 | 0.20 | 0.00 | 50 | 1015.1 |
| 20260504172004 | 13 | 306 | 17.7 | 27.4 | 0.00 | 0.20 | 0.00 | 50 | 1015.1 |
| 20260504171504 | 13 | 304 | 16.1 | 27.4 | 0.00 | 0.20 | 0.00 | 50 | 1014.1 |
| 20260504171004 | 13 | 305 | 9.7 | 29.0 | 0.00 | 0.20 | 0.00 | 50 | 1014.1 |
| 20260504170504 | 13 | 308 | 17.7 | 37.0 | 0.00 | 0.30 | 0.00 | 50 | 1014.1 |
| 20260504151004 | 13 | 303 | 20.9 | 45.1 | 0.00 | 0.64 | 0.00 | 50 | 1013.1 |
| 20260504150504 | 13 | 304 | 16.1 | 20.9 | 0.00 | 0.71 | 0.00 | 50 | 1013.1 |
| 20260504141004 | 14 | 309 | 8.0 | 20.9 | 0.00 | 0.94 | 0.71 | 50 | 1012.1 |
| 20260504130504 | 15 | 311 | 16.1 | 25.7 | 0.00 | 1.88 | 0.71 | 50 | 1012.1 |
| 20260504110503 | 15 | 311 | 14.5 | 29.0 | 0.00 | 2.62 | 0.71 | 50 | 1010.1 |
| 20260504100504 | 16 | 312 | 14.5 | 33.8 | 0.00 | 2.62 | 0.71 | 50 | 1008.1 |